Details for EasyJet at LFSB




Go Back


Latest METAR
Local Time

LFSB 180600Z 33005KT 9999 FEW040 BKN050 BKN086 18/16 Q1021 NOSIG
18/08/2018, 08:30:21

Description
Results
EasyJet Logo
Number of Pilots based at LFSB
0 Pilots Based here
Number of EasyJet Flights Departed from LFSB
1 Flights Departed
Number of EasyJet Flights Arrived at LFSB
1 Flights Arrived
Number of EasyJet Schedules Departing from LFSB
32 Schedules
Number of EasyJet Schedules Arriving at LFSB
30 Schedules
Number of EasyJet Schedules Departing from LFSB availible today
14 Schedules Today
Number of EasyJet Schedules Arriving at LFSB availible today
15 Schedules Today
Average Landing Rate at LFSB
-169 fpm
EasyJet Average Landing Rate at LFSB
-201 fpm
Total Fuel Purchased at LFSB by EasyJet
4,222.94 kgs / 9,309.89 lbs

Pilots Based at LFSB


Pilot ID
Pilot Name
Pilot Rank
No. of Flights
No. of Flying Hours
There are no pilots assigned to this hub!   Will you be the first?
Content